Wind_Speed
26 27 28 29 30 31 30 30 30 30 29 29 29 29 29 30 31 31 32 33 33 33 33 34 35 35 35 35 36 36 37 37 36 36 36 36 36 36
26 27 27 28 28 29 29 29 29 29 29 29 29 29 29 31 31 31 31 31 31 32 33 33 33 34 33 33 34 34 34 33 34 33 34 34 35 36
24 25 26 27 27 27 28 28 28 28 28 28 28 28 28 29 29 29 28 28 29 30 30 30 30 29 30 30 31 31 31 31 31 32 33 34 35 35
23 24 24 26 26 26 27 27 26 26 26 27 26 26 25 25 26 26 26 26 27 27 27 27 27 28 28 29 29 29 29 30 31 32 33 33 33 33
22 22 23 24 24 25 25 25 24 24 25 25 24 24 24 24 25 26 26 26 26 26 25 26 26 27 28 28 28 28 29 29 30 31 31 31 31 30
22 23 23 23 23 23 22 22 23 23 23 23 22 22 22 23 23 23 23 23 23 24 25 25 26 26 27 27 27 27 28 29 29 29 29 29 28 27
20 20 21 21 20 20 20 20 21 21 20 20 20 20 21 21 22 21 21 21 22 23 24 24 24 24 24 25 26 26 27 27 27 27 26 26 25 25
18 17 17 17 18 19 19 19 19 19 19 19 19 19 20 19 19 20 20 21 22 22 21 21 22 22 22 23 24 25 26 25 25 24 24 23 23 22
16 16 16 15 16 16 17 17 18 18 19 19 18 18 18 17 18 19 19 19 19 19 18 19 19 20 21 22 23 24 23 23 22 21 21 20 20 20
14 14 14 13 14 15 15 16 16 16 17 17 17 17 17 16 16 16 16 17 17 17 17 17 18 19 20 21 21 21 20 20 19 19 18 18 17 17
12 12 12 12 13 14 14 14 14 14 14 14 14 14 14 14 14 14 14 14 14 14 15 16 16 17 18 19 18 18 17 17 17 16 16 15 15 15
9 9 9 8 9 11 11 11 11 11 11 11 12 12 12 12 11 11 11 12 12 13 13 14 15 15 15 15 15 15 14 14 14 14 14 15 15 15
8 7 6 6 7 8 8 9 9 9 9 10 9 9 9 9 9 9 9 9 10 11 11 12 12 12 12 13 13 12 13 13 13 14 14 14 15 15
7 6 6 6 6 6 7 7 7 7 7 7 6 6 6 6 7 7 7 7 7 8 9 9 10 10 10 11 11 12 12 13 13 13 14 14 15 16
5 5 5 5 5 5 5 4 4 4 4 4 4 4 4 3 3 4 4 5 5 6 7 7 8 9 10 10 11 11 12 12 12 13 14 15 16 17
5 4 4 4 4 4 3 3 2 2 2 1 1 0 1 1 2 2 3 3 4 5 6 7 8 9 9 10 10 11 12 12 13 14 15 16 17 17
5 5 5 5 5 5 5 4 4 3 3 2 2 2 2 2 2 3 3 4 5 6 7 7 8 9 9 10 11 12 13 13 14 15 16 17 18 18
6 6 7 7 6 6 6 6 5 5 5 5 4 4 4 4 4 4 5 5 6 7 7 8 9 10 11 11 12 13 14 15 16 16 16 17 18 19
8 8 8 8 9 9 8 8 7 7 7 6 6 5 5 5 5 5 6 6 7 7 8 9 10 10 11 12 13 14 15 16 16 17 18 18 18 19
11 11 11 11 11 10 9 9 8 8 8 8 7 7 7 6 6 7 7 7 8 8 9 10 10 11 12 13 14 15 16 17 17 18 19 19 20 20
12 12 12 12 12 11 10 10 10 10 9 9 8 8 8 8 8 8 8 8 9 9 10 11 12 13 13 14 15 16 18 19 19 20 20 21 21 23
14 13 13 13 13 12 12 11 11 11 10 9 9 9 8 8 9 9 9 9 10 11 12 13 13 14 15 16 16 17 18 19 21 22 23 24 25 25
15 14 14 14 14 14 13 13 12 12 11 11 10 10 9 9 9 9 10 10 11 12 13 14 15 16 17 17 18 19 20 21 22 24 25 28 29 30
Wind_Direction
255 254 255 256 257 258 260 259 259 259 259 259 260 261 260 261 262 264 267 269 270 271 273 274 273 275 277 280 280 280 281 282 282 282 284 285 286 287
256 254 255 255 256 256 257 257 258 260 260 260 260 261 260 261 263 264 268 271 271 272 273 274 275 276 276 279 280 280 280 280 282 283 284 285 286 287
258 258 257 254 254 254 254 255 257 258 258 260 262 261 263 261 262 264 267 269 271 272 273 275 275 276 277 280 280 281 281 281 283 284 285 285 287 288
257 255 255 254 253 253 254 255 256 255 255 257 259 260 260 261 263 266 266 269 273 275 276 277 276 277 279 279 280 281 281 282 283 284 286 287 288 290
257 257 256 256 255 254 254 254 252 252 252 254 255 256 260 263 263 264 266 271 274 275 276 277 277 278 278 277 278 280 281 283 285 287 288 289 291 292
259 257 256 255 253 253 253 251 249 249 250 250 252 257 259 261 262 264 268 271 273 271 272 274 275 277 277 278 279 281 284 286 287 288 289 291 292 293
258 256 255 254 251 250 249 247 246 246 247 250 253 257 259 259 263 265 267 269 271 272 273 274 276 277 278 281 283 285 286 288 289 291 292 293 294 294
258 255 253 251 247 245 246 244 243 243 245 248 251 255 257 259 261 264 266 269 271 272 274 275 277 279 282 284 286 288 289 291 292 294 295 295 295 295
254 251 249 249 244 243 242 241 240 243 246 249 251 254 257 260 262 265 267 269 272 274 277 279 281 283 285 287 289 291 293 294 296 297 297 297 297 298
252 251 249 245 240 236 235 238 240 241 244 248 251 255 260 262 263 266 267 271 274 277 280 282 285 288 290 292 294 295 296 298 299 299 300 300 300 301
248 247 244 241 237 233 235 238 239 243 246 248 252 257 259 262 264 268 271 273 274 278 282 286 290 294 296 297 299 299 299 300 300 302 303 304 304 305
235 232 233 230 225 223 229 234 238 243 246 251 256 257 257 260 262 266 271 275 281 285 289 292 296 299 301 302 303 303 303 304 305 306 306 306 307 309
218 218 218 216 214 218 224 230 235 243 249 253 253 253 255 259 263 270 276 282 289 293 296 298 302 306 308 308 309 310 310 310 310 310 309 309 310 311
203 204 209 214 215 221 225 229 233 238 244 244 244 253 257 266 276 282 286 291 297 303 306 309 312 316 317 317 317 317 316 314 313 313 314 314 314 314
193 197 203 207 206 210 215 215 213 222 231 236 245 255 262 281 293 296 296 305 314 319 321 323 325 325 324 323 323 323 321 320 319 318 318 318 316 315
191 190 186 181 181 181 179 183 191 176 160 164 167 195 5 356 344 339 339 340 340 339 338 336 334 332 331 331 330 328 325 323 321 319 318 317 316 315
166 159 157 155 153 152 148 145 140 130 121 117 109 93 78 64 51 40 21 6 356 351 348 347 345 340 336 334 333 331 329 327 325 322 320 319 317 317
139 138 137 136 134 133 129 124 115 109 107 104 97 87 77 70 59 40 26 16 10 3 358 354 349 344 339 337 334 331 330 330 328 326 324 322 320 319
126 126 126 121 118 116 114 110 106 102 99 98 94 85 76 66 53 39 28 21 15 8 3 358 352 347 342 339 337 336 333 332 331 330 328 326 323 321
118 117 117 115 112 111 109 107 104 102 98 94 89 81 72 62 52 41 33 25 18 12 6 359 354 349 345 343 340 339 338 336 334 332 330 329 326 324
114 113 113 111 111 109 106 103 102 100 96 89 82 75 67 59 49 41 34 27 19 11 4 358 353 349 346 343 340 338 336 335 334 332 330 328 326 324
112 110 109 109 108 106 104 102 99 95 90 84 78 71 63 56 50 42 34 26 19 13 7 2 358 353 349 345 341 339 336 334 332 329 327 326 324 323
110 109 108 107 105 102 100 97 93 88 83 79 73 68 62 56 49 41 33 27 21 14 8 1 356 352 347 344 340 337 334 331 329 327 325 324 323 322
Height
5784 5785 5786 5787 5788 5790 5791 5792 5794 5794 5795 5796 5798 5799 5799 5799 5800 5799 5799 5799 5798 5798 5797 5796 5795 5793 5792 5790 5788 5786 5784 5782 5780 5777 5775 5772 5769 5766
5776 5778 5779 5780 5781 5782 5783 5784 5786 5787 5787 5789 5790 5791 5791 5792 5792 5791 5791 5791 5790 5789 5789 5788 5786 5784 5783 5781 5779 5777 5775 5773 5771 5768 5766 5763 5760 5757
5769 5770 5771 5772 5773 5774 5775 5776 5778 5779 5780 5781 5781 5783 5783 5784 5784 5784 5783 5783 5782 5781 5780 5779 5778 5776 5774 5773 5771 5769 5767 5765 5762 5760 5757 5755 5752 5749
5762 5763 5763 5764 5765 5766 5767 5769 5770 5772 5773 5774 5774 5775 5776 5776 5776 5776 5776 5775 5775 5774 5772 5771 5770 5768 5767 5765 5763 5761 5759 5757 5754 5752 5749 5746 5743 5740
5755 5755 5756 5757 5758 5759 5760 5762 5763 5764 5766 5767 5768 5769 5769 5770 5770 5770 5769 5768 5767 5766 5765 5764 5763 5761 5759 5758 5756 5753 5751 5749 5747 5744 5741 5738 5735 5732
5748 5748 5749 5750 5751 5752 5753 5755 5756 5757 5759 5760 5761 5762 5763 5763 5763 5763 5762 5762 5761 5760 5759 5757 5756 5754 5753 5751 5749 5747 5744 5742 5739 5737 5734 5731 5728 5725
5741 5741 5742 5743 5744 5746 5747 5749 5750 5751 5753 5754 5755 5756 5757 5757 5757 5756 5756 5755 5755 5754 5752 5751 5750 5748 5746 5744 5742 5740 5738 5735 5732 5730 5727 5724 5721 5719
5734 5735 5736 5737 5738 5740 5741 5743 5744 5746 5748 5749 5749 5750 5750 5751 5751 5750 5750 5750 5749 5748 5746 5745 5743 5742 5740 5738 5736 5734 5731 5729 5726 5723 5721 5718 5716 5713
5729 5730 5730 5731 5733 5734 5736 5737 5739 5741 5743 5744 5744 5745 5745 5745 5745 5745 5745 5744 5743 5742 5741 5739 5738 5736 5735 5733 5730 5728 5725 5723 5720 5718 5715 5713 5711 5708
5724 5725 5726 5727 5728 5730 5731 5733 5735 5736 5738 5738 5739 5740 5740 5740 5740 5740 5740 5739 5738 5737 5736 5735 5733 5731 5729 5727 5725 5722 5720 5718 5715 5713 5711 5709 5706 5704
5720 5721 5722 5723 5724 5726 5728 5729 5731 5732 5733 5734 5734 5735 5735 5736 5736 5736 5735 5735 5734 5733 5732 5730 5728 5727 5724 5722 5720 5718 5716 5714 5712 5709 5707 5705 5703 5700
5717 5718 5719 5720 5721 5723 5724 5726 5727 5728 5729 5730 5731 5731 5731 5732 5732 5731 5731 5730 5729 5729 5728 5726 5724 5723 5721 5719 5716 5714 5712 5710 5708 5706 5704 5702 5699 5697
5715 5716 5717 5718 5719 5720 5722 5723 5724 5725 5726 5727 5727 5727 5728 5728 5728 5728 5727 5727 5726 5725 5724 5723 5721 5719 5717 5716 5714 5711 5709 5707 5705 5703 5701 5699 5696 5694
5713 5714 5715 5716 5717 5718 5719 5720 5721 5722 5723 5724 5724 5725 5725 5725 5725 5725 5724 5724 5723 5722 5721 5720 5718 5717 5715 5713 5711 5709 5707 5705 5703 5700 5698 5696 5693 5690
5712 5713 5714 5715 5716 5717 5718 5719 5719 5720 5721 5722 5722 5723 5723 5723 5723 5723 5722 5722 5721 5720 5719 5718 5716 5715 5713 5711 5709 5707 5705 5703 5700 5698 5695 5693 5690 5687
5711 5712 5713 5714 5715 5716 5717 5718 5719 5719 5720 5721 5721 5722 5722 5722 5722 5721 5721 5720 5720 5719 5717 5716 5715 5713 5711 5709 5707 5705 5703 5701 5698 5696 5693 5690 5687 5684
5711 5712 5713 5714 5715 5716 5717 5718 5719 5719 5720 5720 5721 5721 5721 5721 5721 5721 5720 5720 5719 5718 5717 5715 5714 5712 5710 5708 5706 5704 5701 5699 5696 5693 5690 5687 5684 5681
5711 5712 5713 5714 5715 5716 5717 5718 5719 5720 5720 5721 5721 5721 5721 5721 5721 5721 5720 5719 5718 5717 5716 5715 5713 5711 5709 5707 5705 5702 5699 5696 5694 5691 5687 5684 5681 5677
5712 5713 5714 5715 5716 5717 5719 5719 5720 5721 5721 5722 5722 5722 5722 5722 5722 5721 5720 5719 5718 5717 5716 5714 5712 5710 5707 5705 5703 5700 5697 5694 5691 5688 5685 5681 5678 5674
5713 5715 5716 5717 5718 5719 5720 5721 5722 5723 5723 5723 5723 5723 5723 5723 5722 5722 5721 5720 5719 5717 5715 5713 5711 5709 5706 5704 5701 5698 5695 5692 5688 5685 5681 5678 5674 5670
5716 5717 5719 5720 5721 5722 5723 5724 5724 5725 5725 5725 5725 5725 5725 5724 5723 5723 5722 5720 5719 5717 5715 5713 5710 5708 5705 5702 5700 5696 5693 5689 5685 5682 5678 5674 5670 5666
5719 5721 5722 5723 5724 5725 5725 5726 5727 5727 5727 5727 5727 5727 5726 5725 5725 5724 5722 5721 5719 5717 5715 5712 5710 5707 5704 5701 5698 5694 5691 5687 5683 5678 5673 5670 5665 5661
5723 5724 5725 5726 5727 5728 5728 5729 5729 5729 5729 5729 5729 5728 5728 5727 5726 5725 5723 5721 5719 5717 5715 5712 5709 5706 5702 5699 5695 5691 5688 5684 5679 5675 5670 5665 5660 5655